Terminal Aerodrome Forecast
Issued by NWS Upton, NY

Home | Current Version | Previous Version | Text Only | Print | Product List | Glossary On
Versions: 1 2 3 4 5 6 7 8 9 10 11 12 13 14 15 16 17 18 19 20 21 22 23 24 25 26 27 28 29
000
FTUS41 KOKX 220800 AAB
TAFJFK
TAF AMD
KJFK 220839Z 2209/2312 VRB06KT P6SM SCT018 BKN035
     FM221000 10008KT P6SM BKN015
     FM221400 09011KT P6SM SCT020 OVC035
     FM230200 08008KT P6SM BKN020 OVC035=

USA.gov is the U.S. government's official web portal to all federal, state and local government web resources and services.